Location: Lane
(33.5226°N, 79.8788°W)
Time: 08:47:10
(UTC+00:00)

Altair - Pass Details

Date: 10 October 2022
Orbit: 1501 x 1682 km, 47.2° (Epoch: 08 December)

Event Time Altitude Azimuth Distance (km) Brightness Sun altitude
Rises 09:32:04 0° 264° (W) 4,724 - -23.3°
Reaches altitude 10° 09:35:19 10° 271° (W) 3,766 - -22.7°
Exits shadow 09:39:44 28° 289° (WNW) 2,641 8.2 -21.8°
Maximum altitude 09:44:24 45° 342° (NNW) 2,106 8.1 -20.8°
Drops below altitude 10° 09:53:50 10° 53° (NE) 3,904 10.4 -18.8°
Sets 09:57:17 0° 59° (ENE) 4,910 11.3 -18.1°
